CAPE
392 575 748 865 1010 1194 1350 1464 1529 1649 1756 1831 1869 2098 2391 2570 2617 2657 2746 2817 2830 2815 2826 2822 2770 2640 2386 2049 1602 1006 90 0 0 0 0 0 0 0 0 0 0 0 0 0 0 0 4 1 16 29 16 68 50 44 25 98 369 544 534 499 487 551 589
254 467 703 815 918 1087 1266 1413 1468 1546 1720 1827 1868 2026 2366 2590 2673 2672 2720 2774 2825 2828 2866 2836 2672 2482 2246 1892 1473 809 0 0 5 74 0 0 12 0 0 0 0 0 0 0 0 0 0 4 27 5 10 115 146 8 1 31 110 175 501 480 329 534 567
179 333 579 750 842 957 1113 1278 1385 1434 1594 1722 1772 1975 2322 2566 2700 2721 2713 2736 2796 2844 2837 2761 2552 2392 2224 1749 1256 370 0 0 3 6 0 0 0 0 0 0 0 0 0 0 0 0 1 0 12 0 0 13 46 8 0 0 9 23 45 65 155 192 18
62 257 459 613 762 898 1023 1137 1226 1310 1426 1552 1638 1936 2295 2531 2693 2716 2694 2672 2735 2835 2844 2730 2541 2399 2221 1707 1026 9 3 0 0 0 0 0 0 0 0 0 0 0 0 0 0 0 15 23 4 0 312 5 0 0 0 0 0 1 2 8 32 51 23
34 184 402 538 653 806 969 1068 1108 1164 1246 1386 1544 1877 2257 2505 2663 2674 2669 2648 2710 2762 2794 2676 2540 2404 2205 1649 463 46 56 0 1 0 0 0 0 0 0 0 0 0 0 0 0 28 58 45 0 0 2 26 0 0 0 0 0 0 0 0 3 17 32
12 130 324 517 614 696 805 924 1002 1055 1107 1219 1428 1776 2154 2480 2626 2644 2638 2633 2641 2706 2684 2607 2517 2400 2130 1626 271 114 44 6 344 450 0 0 0 0 0 0 0 0 0 0 0 0 0 4 1 0 0 0 0 0 0 0 0 0 0 0 0 5 45
7 104 222 450 615 697 733 785 886 983 1045 1131 1354 1708 2076 2428 2599 2612 2579 2568 2602 2593 2618 2570 2455 2336 2061 1462 211 223 66 367 510 428 0 0 0 0 0 0 0 0 0 0 0 0 0 0 0 0 0 0 0 0 0 0 0 0 0 0 1 0 0
9 27 66 337 528 663 746 803 836 946 1056 1137 1377 1768 2123 2370 2539 2576 2516 2480 2526 2541 2482 2371 2340 2250 1881 1334 252 273 138 400 457 462 457 381 0 0 0 0 0 0 0 0 0 0 0 0 0 0 0 0 0 0 0 0 0 0 0 0 1 3 19
65 44 29 73 400 564 724 788 828 890 1040 1202 1456 1780 2082 2282 2397 2468 2483 2379 2406 2422 2354 2071 2104 2030 1646 1042 386 422 391 413 546 713 712 546 0 0 0 0 0 0 0 0 0 0 0 0 0 0 0 0 0 0 0 0 0 0 0 0 2 26 27
78 76 79 118 233 461 611 721 807 826 1067 1232 1453 1724 2022 2185 2254 2316 2335 2307 2291 2302 2277 2112 1915 1852 1447 779 454 497 509 560 708 868 820 627 280 0 0 0 0 0 0 0 0 0 0 0 0 0 0 0 0 0 0 0 0 0 0 0 0 7 22
39 41 39 95 160 353 544 640 713 907 1079 1250 1444 1678 1932 2082 2139 2185 2220 2237 2198 2174 2116 1990 1728 1552 1119 579 579 623 663 716 862 940 841 674 502 0 0 0 0 2 0 0 0 0 0 0 0 0 0 0 0 0 0 0 0 0 0 0 3 12 24
81 102 15 61 156 306 437 567 676 908 1125 1304 1467 1652 1881 2009 2045 2092 2092 2118 2135 2092 1948 1956 1870 1354 638 430 576 598 683 705 806 867 785 732 576 0 0 0 0 0 18 0 0 0 0 0 0 0 0 0 0 0 0 0 0 0 0 2 16 17 12
110 2 3 32 110 300 415 543 712 912 1150 1367 1523 1674 1837 1938 1991 2009 2043 2057 2066 2090 1991 1784 1694 1484 689 613 570 437 489 724 818 881 832 772 585 216 0 0 10 35 2 7 0 0 0 0 0 0 0 0 0 0 0 0 0 0 0 0 1 3 7
174 14 31 55 201 327 459 593 766 956 1152 1376 1578 1740 1866 1920 1958 1972 1990 2007 2005 2018 1995 1854 1640 1523 1111 939 971 540 524 790 919 1007 916 792 595 0 3 15 21 28 0 0 0 0 0 0 0 0 0 0 0 0 0 0 0 0 0 0 0 0 2
122 104 119 140 322 430 566 695 807 977 1171 1378 1604 1794 1920 1966 1975 1968 1934 1920 1921 1906 1942 1887 1782 1558 1398 1219 1082 932 641 670 957 984 892 774 641 71 7 17 5 0 0 0 0 0 0 0 0 0 0 0 0 0 0 0 0 0 0 0 0 0 1
238 286 344 404 422 528 668 764 874 1038 1234 1420 1634 1839 1990 2034 2016 1992 1943 1906 1900 1892 1864 1855 1869 1800 1605 1529 1589 1354 854 692 830 924 868 806 721 542 444 167 166 0 0 0 0 0 0 0 0 0 0 0 0 0 0 0 0 0 0 0 1 0 3
365 398 469 574 585 624 754 851 933 1091 1329 1540 1687 1873 2029 2062 2039 2017 1972 1919 1875 1870 1860 1844 1834 1810 1787 1722 1720 1591 874 612 752 832 861 881 686 642 524 150 0 447 0 0 0 0 0 0 0 0 0 0 0 0 0 0 0 0 0 0 10 37 6
473 525 583 684 718 714 751 882 1023 1125 1372 1643 1826 1945 2042 2103 2116 2096 2048 1972 1957 1914 1869 1845 1829 1874 1905 1869 1850 1719 1134 535 725 840 886 828 808 593 606 456 472 456 208 0 0 0 0 0 0 0 0 0 0 0 46 10 0 0 0 0 0 60 198
512 567 638 747 837 848 846 906 1030 1188 1314 1562 1881 2043 2118 2176 2194 2177 2154 2085 2045 1973 1917 1886 1900 1953 1989 1992 1883 1573 855 493 635 846 854 714 594 510 357 502 516 439 180 0 0 0 0 0 0 0 0 0 0 139 118 63 24 0 0 0 0 0 33
421 559 628 720 791 874 916 919 953 1121 1296 1420 1693 2016 2167 2208 2225 2189 2156 2144 2080 2048 2001 1946 1888 1914 1922 1789 1318 779 478 508 662 763 669 569 367 314 346 436 438 410 383 0 0 0 0 0 0 0 0 0 2 201 202 151 92 50 0 0 0 0 0
453 679 924 1119 1291 1256 1070 895 878 950 1092 1334 1522 1702 2057 2258 2274 2256 2207 2176 2149 2090 2054 1998 2062 1995 2029 1625 980 739 630 562 741 359 335 261 400 416 324 324 400 456 463 0 0 0 0 0 0 0 88 180 214 231 236 211 194 144 38 0 0 0 0
517 899 1132 1240 1384 1587 1721 1732 1484 1259 1120 1082 1251 1490 1666 2025 2237 2313 2325 2257 2209 2155 2103 2152 2183 2158 2049 1750 1110 1012 852 781 280 237 292 396 413 404 397 430 487 569 597 398 104 1 0 0 0 0 179 205 231 260 298 315 261 152 61 39 0 0 0
378 740 960 1203 1495 1728 1972 2201 2279 2137 1902 1842 1780 1772 1803 1711 1859 2115 2248 2297 2295 2225 2197 2249 2280 2063 1405 1487 1132 1137 1270 685 344 354 368 482 474 388 358 413 588 741 693 498 412 376 368 330 5 9 6 100 257 320 397 409 325 174 82 56 49 5 0
42 440 593 818 1038 1314 1403 1594 1967 2142 2070 2044 1988 1918 1949 1942 1899 1811 1906 2029 2098 2102 2103 2116 1976 1742 1098 872 965 943 952 812 151 446 442 409 320 172 363 540 710 902 785 558 423 363 279 19 95 54 15 120 348 423 490 523 484 311 182 150 134 97 39
2 326 465 577 847 992 1248 1534 1813 2052 2095 2199 2241 2061 2003 1980 1931 1845 1770 1795 1840 1842 1795 1720 1624 1390 1037 998 1030 905 839 1009 699 510 529 470 327 285 460 730 972 1015 703 479 318 406 390 228 89 37 92 124 466 527 561 642 561 199 144 212 232 184 165
91 0 290 21 89 676 897 1681 1904 2019 2114 2039 2042 2008 2036 1981 1936 1892 1846 1873 1903 1990 1883 1597 1445 1298 1137 746 838 854 648 1122 882 762 608 522 379 313 469 732 854 676 410 480 592 665 743 732 574 457 482 566 579 615 638 685 684 458 130 135 229 169 128
1297 1438 1336 2036 2370 1990 1348 1732 1868 1946 2016 2043 1981 1918 1974 1936 1930 1929 1912 1925 1953 1969 1912 1492 1164 1110 1118 717 492 813 873 983 881 851 780 594 332 120 407 458 495 554 677 810 913 962 1050 1111 1052 808 616 680 689 685 714 761 858 828 500 92 126 167 105
2280 2824 3092 3126 2888 2251 1978 1981 1953 1921 1918 1974 1968 1904 1902 1923 1974 2035 2045 2009 1972 1934 1830 1248 989 990 916 738 450 677 787 774 780 833 779 557 305 546 626 604 668 816 1005 1114 1166 1230 1280 1295 1170 971 758 750 785 815 850 897 909 883 618 82 0 0 0
2474 2790 3142 3266 3281 2855 2503 2283 2200 2145 2086 1997 1996 2010 1984 1990 2064 2113 2156 2128 2095 1746 1187 912 848 704 596 621 713 457 517 572 622 704 716 761 840 877 912 888 1014 1158 1259 1361 1412 1429 1360 1162 950 841 728 683 819 900 942 979 888 691 111 0 0 0 0
2694 2868 2973 3075 3125 3102 2788 2467 2340 2263 2300 2293 2273 2235 2188 2128 2138 2145 2178 2117 1648 1244 1102 934 642 394 254 319 0 456 551 621 968 1056 1043 1050 1126 1173 1228 1273 1383 1474 1502 1573 1557 1380 1169 1028 855 720 639 626 744 776 745 715 655 528 364 0 0 0 0
2441 2712 2832 2852 2939 3076 3071 2856 2632 2653 2608 2567 2613 2589 2416 2384 2278 2286 2260 1576 1157 1164 1035 709 525 583 504 530 495 404 444 848 982 1206 1220 1298 1362 1425 1484 1561 1606 1665 1695 1631 1400 1074 966 896 745 605 575 610 646 686 655 630 598 530 376 0 0 0 0
2292 2414 2605 2739 2795 2956 3082 2967 2907 2827 2808 2649 2711 2764 2783 2704 2677 2643 2286 1436 1164 1062 881 914 916 723 695 621 583 498 595 847 1129 1255 1381 1476 1557 1642 1710 1799 1811 1675 1550 1402 1313 1019 847 778 630 570 586 642 700 700 662 607 598 554 391 0 2 0 72
2421 2496 2642 2729 2835 2874 2870 2811 2752 2718 2668 2713 2495 2716 2815 2834 2684 2607 1962 1318 1109 1020 1006 1191 1124 936 788 719 528 693 971 1170 1263 1466 1678 1742 1850 2024 1960 1734 1584 1557 1547 1214 920 816 741 640 579 570 594 614 590 556 547 590 541 414 297 314 360 381 375
1918 2172 2401 2631 2709 2696 2693 2624 2442 2305 2262 2369 2377 2377 2541 2548 2557 2151 1701 1464 1168 825 1082 1084 859 831 589 390 573 756 1021 1385 1645 1793 1918 2019 1967 1881 1704 1646 1653 1584 1304 948 785 684 586 526 521 522 502 474 476 498 492 470 439 413 385 358 352 393 458
1336 1585 1841 2077 2281 2418 2462 2498 2464 2439 2436 2410 2276 2066 1886 1840 1790 1683 1600 1559 1018 689 614 574 326 600 780 948 1098 1294 1548 1875 1976 1907 1740 1663 1662 1703 1704 1709 1554 1288 1007 763 621 534 477 483 464 472 471 439 390 357 372 388 364 358 330 367 409 508 620
1153 1151 1405 1657 2009 2198 2339 2456 2588 2680 2652 2403 2111 1741 1380 1380 1472 1548 1468 827 632 156 82 427 713 936 1361 1587 1747 1907 2033 2007 1848 1611 1410 1371 1485 1650 1522 1378 1206 1043 787 677 501 450 444 442 430 392 357 342 339 138 128 286 282 262 299 356 444 554 553
971 1010 1072 1286 1555 1861 2092 2280 2360 2385 2259 2026 1669 1422 1374 1277 1261 1094 872 613 430 436 931 1036 586 472 1002 1473 1556 1833 1856 1746 1668 1464 1453 1550 1639 1478 1237 1051 805 672 577 457 397 412 414 393 366 343 0 0 0 0 0 0 0 0 163 279 371 435 448
888 877 926 1005 1099 1266 1406 1587 1719 1712 1686 1504 1445 1416 1227 1145 1108 930 738 491 343 268 84 205 702 751 1111 1657 1750 1843 1741 1636 1573 1388 1431 1428 1311 1147 908 619 452 360 335 331 361 334 287 94 0 0 0 0 0 0 0 0 0 0 0 0 24 85 90
Wind_Speed
22 21 19 19 19 19 20 20 21 21 22 22 22 24 25 24 23 23 24 26 26 26 25 26 26 26 27 26 26 25 nan nan nan nan nan nan nan nan nan nan nan nan nan nan nan nan nan nan nan nan nan nan nan nan nan nan 27 28 29 30 31 32 34
17 18 18 19 20 18 17 18 20 21 21 22 22 24 23 22 22 22 23 24 25 26 26 26 26 26 26 25 24 24 nan nan nan nan nan nan nan nan nan nan nan nan nan nan nan nan nan nan nan nan nan 28 27 nan nan nan 28 29 31 31 32 33 34
16 17 17 19 21 18 17 18 22 25 25 24 24 23 23 23 23 24 24 24 26 26 27 27 27 27 26 25 25 24 nan nan nan nan nan nan nan nan nan nan nan nan nan nan nan nan nan nan nan nan nan nan nan nan nan nan nan nan nan nan 33 34 nan
nan 17 18 22 23 20 21 25 29 29 27 27 27 27 26 25 24 24 24 26 28 28 29 28 29 28 26 26 26 nan nan nan nan nan nan nan nan nan nan nan nan nan nan nan nan nan nan nan nan nan 30 nan nan nan nan nan nan nan nan nan nan nan nan
nan 16 17 19 21 21 22 24 26 28 29 28 27 27 27 26 26 24 23 25 27 30 30 31 29 28 26 27 26 nan nan nan nan nan nan nan nan nan nan nan nan nan nan nan nan nan nan nan nan nan nan nan nan nan nan nan nan nan nan nan nan nan nan
nan 18 20 21 22 24 25 27 28 30 29 28 26 25 24 25 24 23 23 24 23 24 27 28 30 30 29 28 29 28 nan nan 30 29 nan nan nan nan nan nan nan nan nan nan nan nan nan nan nan nan nan nan nan nan nan nan nan nan nan nan nan nan nan
nan 19 21 22 23 25 27 27 27 28 27 26 24 22 22 22 23 23 23 23 24 27 30 30 29 30 30 30 30 32 nan 32 31 30 nan nan nan nan nan nan nan nan nan nan nan nan nan nan nan nan nan nan nan nan nan nan nan nan nan nan nan nan nan
nan nan nan 23 24 26 27 27 27 27 26 23 21 21 22 21 21 22 23 24 26 27 28 29 30 29 30 30 31 33 33 34 32 31 31 31 nan nan nan nan nan nan nan nan nan nan nan nan nan nan nan nan nan nan nan nan nan nan nan nan nan nan nan
nan nan nan nan 24 26 26 26 26 28 29 28 25 23 23 22 22 23 24 26 27 29 29 30 31 32 32 31 30 31 34 34 32 32 32 32 nan nan nan nan nan nan nan nan nan nan nan nan nan nan nan nan nan nan nan nan nan nan nan nan nan nan nan
nan nan nan 21 23 25 25 25 23 22 23 21 18 17 19 21 21 22 24 26 28 30 30 31 33 34 33 31 30 31 33 33 33 34 33 32 32 nan nan nan nan nan nan nan nan nan nan nan nan nan nan nan nan nan nan nan nan nan nan nan nan nan nan
nan nan nan nan 24 25 25 24 24 24 23 21 18 18 19 21 22 25 27 29 30 31 33 34 35 35 34 32 33 32 32 33 34 34 34 33 33 nan nan nan nan nan nan nan nan nan nan nan nan nan nan nan nan nan nan nan nan nan nan nan nan nan nan
nan 26 nan nan 27 27 28 28 25 22 21 19 19 21 22 23 25 27 29 31 32 34 36 36 36 36 37 33 33 31 32 34 35 35 35 35 34 nan nan nan nan nan nan nan nan nan nan nan nan nan nan nan nan nan nan nan nan nan nan nan nan nan nan
24 nan nan nan 29 30 28 25 25 24 22 23 24 25 25 27 28 29 31 33 34 36 38 39 39 39 40 35 32 32 34 35 35 35 36 36 35 34 nan nan nan nan nan nan nan nan nan nan nan nan nan nan nan nan nan nan nan nan nan nan nan nan nan
24 nan nan nan 27 29 29 29 26 25 26 27 28 28 28 29 31 33 35 36 37 38 40 40 41 40 39 37 35 35 35 36 36 36 37 36 36 nan nan nan nan nan nan nan nan nan nan nan nan nan nan nan nan nan nan nan nan nan nan nan nan nan nan
25 26 27 29 30 31 31 29 27 27 27 29 30 31 30 30 31 33 33 33 36 39 41 43 44 42 41 39 37 36 36 35 35 37 38 37 37 nan nan nan nan nan nan nan nan nan nan nan nan nan nan nan nan nan nan nan nan nan nan nan nan nan nan
27 29 31 32 33 33 32 31 30 28 29 30 32 31 30 30 32 35 37 38 39 41 42 45 44 44 43 40 39 39 39 36 37 38 39 37 36 35 33 32 30 nan nan nan nan nan nan nan nan nan nan nan nan nan nan nan nan nan nan nan nan nan nan
30 32 33 32 32 32 31 31 31 30 31 34 36 35 33 32 33 35 37 39 41 42 45 46 46 45 45 42 41 44 42 37 37 39 38 35 35 36 33 31 nan 33 nan nan nan nan nan nan nan nan nan nan nan nan nan nan nan nan nan nan nan nan nan
32 34 34 32 31 31 30 31 31 32 33 36 38 38 36 34 34 36 39 42 43 44 45 46 46 46 44 43 47 51 43 36 39 39 36 34 33 35 32 33 34 34 35 nan nan nan nan nan nan nan nan nan nan nan nan nan nan nan nan nan nan nan 45
33 34 33 32 32 31 30 31 33 34 35 37 40 40 39 39 38 40 43 45 44 46 46 46 46 46 46 48 52 51 43 37 38 38 32 31 31 32 34 32 32 34 36 nan nan nan nan nan nan nan nan nan nan 35 38 nan nan nan nan nan nan nan nan
32 32 34 34 33 31 29 31 31 32 34 38 40 40 38 38 39 39 42 44 45 47 46 47 47 49 49 49 52 50 42 33 34 34 29 30 31 34 33 31 31 34 36 nan nan nan nan nan nan nan nan nan nan 38 39 40 nan nan nan nan nan nan nan
30 33 35 35 32 30 32 34 34 35 37 38 38 36 36 36 37 40 43 45 47 46 47 48 56 59 51 47 48 47 39 34 37 35 31 31 33 33 32 31 32 35 37 nan nan nan nan nan nan nan nan 42 40 40 40 42 43 41 nan nan nan nan nan
35 36 34 32 31 31 37 38 38 39 38 39 39 38 40 43 47 48 47 48 47 46 47 52 57 58 51 45 44 44 42 42 41 36 33 32 32 31 30 31 33 34 38 40 42 nan nan nan nan nan 44 43 41 42 43 45 46 45 nan nan nan nan nan
43 39 34 31 33 34 38 40 41 39 40 42 42 43 46 52 56 53 51 49 47 46 48 53 58 63 52 41 38 40 41 40 42 38 32 31 31 30 31 33 33 35 40 40 41 43 43 44 nan nan nan 44 44 46 47 48 50 50 nan nan nan nan nan
nan 43 40 38 38 37 39 39 38 40 44 45 45 45 51 56 59 56 52 49 48 48 49 51 57 59 47 40 40 39 39 39 38 35 31 32 32 33 34 35 36 38 40 40 42 42 42 nan nan nan nan 45 46 48 50 50 50 51 50 49 49 nan nan
nan 41 42 44 44 41 40 42 43 45 49 52 52 54 59 63 64 60 56 57 59 59 58 56 53 47 41 42 48 49 48 47 47 41 34 32 33 35 36 37 37 40 41 39 40 41 42 42 nan nan nan 45 47 48 50 51 50 50 50 50 51 54 53
nan nan 40 nan nan 44 44 46 49 51 53 54 54 56 58 60 59 57 56 56 58 57 55 53 50 46 43 42 42 41 43 45 47 42 35 29 30 34 36 38 41 41 41 39 41 41 40 42 43 42 42 45 47 50 52 52 51 50 50 52 53 56 54
44 45 47 48 48 48 48 49 51 53 52 53 55 54 54 55 54 51 52 54 56 55 53 49 47 46 43 42 40 36 36 38 36 30 24 24 29 34 37 41 41 42 41 39 40 40 39 40 42 43 44 48 50 52 52 53 52 51 52 nan 54 55 56
50 51 51 52 53 54 56 57 57 57 56 53 54 53 53 52 51 51 53 54 54 54 52 48 45 44 44 45 46 45 39 31 23 17 18 24 30 34 36 39 42 40 38 38 40 40 39 40 43 46 47 50 52 52 52 52 52 51 50 nan nan nan nan
54 55 55 55 57 56 60 60 58 58 57 55 54 53 52 53 52 51 52 51 51 52 50 48 45 44 43 43 46 45 33 21 14 15 21 25 29 34 36 38 39 38 38 39 39 39 38 41 46 48 48 49 50 51 51 51 50 51 50 nan nan nan nan
56 58 59 60 61 61 62 61 58 58 55 55 54 52 51 52 52 51 50 48 50 51 50 49 47 44 40 36 nan 44 30 19 17 25 30 32 36 37 37 37 38 38 38 39 39 38 39 42 46 47 46 46 48 50 50 50 50 48 48 nan nan nan nan
58 57 57 58 59 59 59 60 58 54 50 47 47 45 46 47 51 50 48 47 50 51 50 49 47 43 40 35 36 38 32 28 29 33 37 40 43 39 35 37 39 38 38 38 38 40 43 44 47 48 48 49 48 49 50 49 48 47 48 nan nan nan nan
56 55 55 55 54 54 54 53 50 47 43 40 40 41 42 43 45 49 46 46 47 48 48 47 45 42 40 35 37 37 33 31 35 39 40 44 42 39 39 41 40 37 37 38 39 44 46 46 50 51 51 49 48 47 48 48 48 48 48 nan nan nan nan
62 64 62 56 48 45 43 41 40 39 39 40 39 39 40 42 43 45 47 47 47 48 46 44 44 43 41 35 34 36 36 40 43 46 47 48 46 44 43 39 36 35 36 39 43 47 48 49 51 50 49 47 47 46 46 46 47 48 48 48 48 46 46
56 53 49 43 38 35 34 35 37 40 41 42 41 40 41 42 43 44 45 45 44 46 47 46 44 42 36 32 34 39 44 47 49 49 48 46 45 43 38 35 34 37 40 44 48 50 49 49 49 48 48 47 46 46 46 46 47 47 45 44 45 44 41
33 32 33 35 34 35 35 37 39 40 42 42 42 42 42 42 42 42 43 42 42 45 46 44 44 44 39 39 41 44 47 48 47 47 44 41 39 36 36 37 41 44 47 51 49 48 46 46 45 46 48 48 47 47 45 45 45 44 44 42 42 42 41
27 30 32 33 35 35 36 37 39 41 42 41 41 42 42 42 41 40 41 41 39 42 nan 44 46 46 41 40 42 46 47 46 44 42 40 41 41 43 45 51 53 50 47 47 48 47 43 43 44 46 46 46 45 48 46 45 43 42 44 46 46 43 43
29 29 30 32 35 35 35 37 39 41 42 41 41 42 42 42 42 42 41 41 41 44 47 48 49 46 39 37 42 45 49 47 42 40 43 46 50 52 53 51 49 48 47 46 44 42 42 42 40 40 nan nan nan nan nan nan nan nan 46 44 43 43 42
27 28 29 30 32 33 35 36 38 40 42 42 43 44 44 45 43 43 42 43 46 47 nan 47 47 39 37 37 39 43 44 44 44 48 51 53 55 56 56 54 50 46 44 45 46 45 45 nan nan nan nan nan nan nan nan nan nan nan nan nan nan nan nan
Wind_Direction
347 343 343 344 344 341 336 332 326 320 315 311 309 308 305 304 306 306 308 310 314 314 312 310 311 307 311 308 303 300 nan nan nan nan nan nan nan nan nan nan nan nan nan nan nan nan nan nan nan nan nan nan nan nan nan nan 313 314 315 315 314 317 319
345 343 345 348 348 347 346 345 341 333 325 319 312 312 308 308 305 307 311 312 317 318 314 313 312 312 314 312 305 301 nan nan nan nan nan nan nan nan nan nan nan nan nan nan nan nan nan nan nan nan nan 316 317 nan nan nan 316 315 315 315 316 317 318
338 338 345 347 352 354 349 342 342 339 336 328 319 313 315 315 313 316 313 314 318 315 312 315 315 315 314 311 307 307 nan nan nan nan nan nan nan nan nan nan nan nan nan nan nan nan nan nan nan nan nan nan nan nan nan nan nan nan nan nan 316 318 nan
nan 333 345 346 346 347 341 339 341 338 335 332 328 327 324 321 316 313 314 316 316 312 316 317 315 316 314 311 310 nan nan nan nan nan nan nan nan nan nan nan nan nan nan nan nan nan nan nan nan nan 317 nan nan nan nan nan nan nan nan nan nan nan nan
nan 326 332 329 330 332 332 335 336 337 337 335 333 329 324 321 314 311 312 313 315 319 320 318 314 312 310 310 306 nan nan nan nan nan nan nan nan nan nan nan nan nan nan nan nan nan nan nan nan nan nan nan nan nan nan nan nan nan nan nan nan nan nan
nan 317 322 324 329 334 335 337 339 341 340 336 333 328 323 319 314 317 315 310 311 306 303 307 313 313 312 311 307 305 nan nan 304 305 nan nan nan nan nan nan nan nan nan nan nan nan nan nan nan nan nan nan nan nan nan nan nan nan nan nan nan nan nan
nan 310 314 322 331 334 333 335 338 341 339 336 330 323 316 314 320 320 310 309 310 311 311 315 314 310 309 306 307 307 nan 306 305 309 nan nan nan nan nan nan nan nan nan nan nan nan nan nan nan nan nan nan nan nan nan nan nan nan nan nan nan nan nan
nan nan nan 328 333 333 332 333 335 336 334 320 311 313 319 320 313 309 313 315 313 309 308 311 308 308 304 303 304 306 304 305 307 307 303 305 nan nan nan nan nan nan nan nan nan nan nan nan nan nan nan nan nan nan nan nan nan nan nan nan nan nan nan
nan nan nan nan 335 332 331 329 330 332 332 327 328 329 327 319 318 320 319 313 312 315 317 312 307 299 296 298 301 303 301 304 307 303 304 305 nan nan nan nan nan nan nan nan nan nan nan nan nan nan nan nan nan nan nan nan nan nan nan nan nan nan nan
nan nan nan 328 329 331 328 326 323 321 325 325 322 317 320 323 322 317 314 316 316 320 317 311 301 294 297 304 305 299 297 303 303 302 303 304 302 nan nan nan nan nan nan nan nan nan nan nan nan nan nan nan nan nan nan nan nan nan nan nan nan nan nan
nan nan nan nan 322 326 324 319 320 328 331 329 326 327 325 324 323 321 321 318 320 321 315 308 303 305 302 300 300 298 299 301 300 302 302 303 300 nan nan nan nan nan nan nan nan nan nan nan nan nan nan nan nan nan nan nan nan nan nan nan nan nan nan
nan 320 nan nan 322 321 332 337 331 331 334 331 331 330 330 330 327 325 323 325 323 317 312 312 309 305 299 296 301 301 300 299 300 302 302 301 298 nan nan nan nan nan nan nan nan nan nan nan nan nan nan nan nan nan nan nan nan nan nan nan nan nan nan
316 nan nan nan 321 332 336 336 343 345 340 335 332 331 329 328 325 323 325 326 322 318 315 311 308 304 301 303 304 302 301 300 302 300 299 299 297 294 nan nan nan nan nan nan nan nan nan nan nan nan nan nan nan nan nan nan nan nan nan nan nan nan nan
299 nan nan nan 316 323 335 340 336 335 334 332 331 329 327 324 324 323 323 325 322 318 314 310 309 308 306 306 305 302 302 301 300 297 295 293 292 nan nan nan nan nan nan nan nan nan nan nan nan nan nan nan nan nan nan nan nan nan nan nan nan nan nan
302 312 315 314 317 322 327 329 330 331 330 332 329 327 325 319 317 315 315 315 315 314 315 311 309 309 307 305 304 301 297 293 291 289 288 289 290 nan nan nan nan nan nan nan nan nan nan nan nan nan nan nan nan nan nan nan nan nan nan nan nan nan nan
310 314 315 316 317 320 323 327 329 330 328 328 328 326 321 316 315 317 318 318 317 317 313 309 310 309 308 308 304 298 292 287 284 285 286 287 289 291 294 294 299 nan nan nan nan nan nan nan nan nan nan nan nan nan nan nan nan nan nan nan nan nan nan
311 310 308 310 313 316 318 321 325 324 323 329 331 330 326 321 319 319 319 316 315 315 312 310 309 308 307 306 300 289 282 281 281 281 285 288 290 289 294 301 nan 299 nan nan nan nan nan nan nan nan nan nan nan nan nan nan nan nan nan nan nan nan nan
303 302 303 306 308 309 311 315 318 318 323 328 331 329 323 316 312 311 315 312 312 312 309 309 308 307 305 299 289 283 285 280 278 279 282 283 288 296 303 298 299 301 302 nan nan nan nan nan nan nan nan nan nan nan nan nan nan nan nan nan nan nan 333
297 296 299 301 304 307 312 314 315 318 323 324 323 320 317 312 305 309 310 308 310 308 309 312 309 305 298 287 280 280 279 276 278 284 289 289 291 295 297 299 300 302 303 nan nan nan nan nan nan nan nan nan nan 315 322 nan nan nan nan nan nan nan nan
285 290 290 293 301 308 309 304 302 308 316 319 319 319 315 309 312 313 308 307 304 308 311 311 305 289 277 267 263 262 265 276 286 283 287 293 295 294 297 298 304 304 304 nan nan nan nan nan nan nan nan nan nan 312 318 325 nan nan nan nan nan nan nan
278 281 286 292 296 296 294 296 299 304 306 309 314 312 307 310 310 303 301 303 306 308 308 303 290 289 289 278 273 277 277 281 287 300 301 294 293 295 299 302 302 301 303 nan nan nan nan nan nan nan nan 308 310 312 319 326 335 338 nan nan nan nan nan
282 284 288 292 295 292 289 295 304 308 310 306 305 308 312 315 311 308 308 303 306 306 303 297 298 296 291 288 285 279 274 277 291 300 294 291 291 297 301 301 302 304 300 299 300 nan nan nan nan nan 310 313 314 315 320 325 333 336 nan nan nan nan nan
287 290 290 286 285 288 293 297 302 307 302 301 306 307 311 311 310 307 301 302 304 304 299 297 294 287 280 277 277 274 272 277 288 286 285 286 290 297 300 300 301 298 295 299 300 302 305 308 nan nan nan 318 316 316 320 324 330 331 nan nan nan nan nan
nan 277 280 280 278 279 284 292 294 293 298 300 298 297 296 298 299 296 293 291 288 285 283 287 293 293 292 286 282 275 271 278 284 283 282 286 297 303 302 298 291 293 294 299 299 303 307 nan nan nan nan 317 317 317 320 323 324 325 325 328 331 nan nan
nan 281 280 280 284 288 291 289 288 288 290 293 296 298 299 299 300 297 293 291 292 293 298 307 311 307 295 286 283 276 273 275 279 281 286 297 307 306 300 296 294 288 290 296 299 302 302 305 nan nan nan 315 317 318 318 318 318 321 324 326 328 326 322
nan nan 280 nan nan 275 278 282 285 288 295 300 300 299 300 299 298 296 295 299 301 302 305 307 310 310 302 283 269 268 272 278 285 285 289 303 307 300 297 289 284 288 293 295 299 303 306 307 311 313 314 314 314 314 314 315 316 316 321 324 325 326 322
272 274 276 276 278 278 278 279 282 290 294 293 296 298 298 297 296 296 296 295 295 300 303 304 304 306 302 288 273 262 274 289 295 293 292 300 302 298 292 288 286 286 291 296 298 301 305 308 310 312 313 313 313 313 313 314 316 317 322 nan 324 322 321
268 267 268 271 274 276 276 277 280 283 284 289 295 295 293 292 290 288 291 294 297 299 299 303 304 302 300 294 274 262 268 280 277 276 292 300 303 302 298 289 286 288 293 296 298 302 306 307 308 310 311 310 311 313 314 315 318 316 320 nan nan nan nan
261 264 266 269 270 273 277 278 279 281 283 286 288 287 287 288 288 288 289 293 295 293 295 297 297 296 299 295 278 265 260 253 258 289 302 311 316 312 304 294 289 289 291 294 297 301 304 307 306 306 307 307 309 311 313 313 313 316 316 nan nan nan nan
259 262 265 267 271 274 277 278 280 283 285 286 283 280 280 284 285 287 289 288 284 286 287 291 295 300 307 299 nan 265 262 255 274 302 308 313 317 315 306 299 294 290 292 293 296 300 303 306 304 303 305 309 310 309 311 311 312 315 316 nan nan nan nan
259 261 264 268 272 275 277 282 284 283 282 282 282 279 279 281 285 285 286 283 285 288 290 293 298 303 309 297 268 259 259 259 273 293 304 311 313 310 304 297 292 289 289 291 293 298 304 307 306 307 308 309 311 310 311 311 311 312 315 nan nan nan nan
262 264 267 268 269 270 273 276 278 278 278 275 276 277 277 277 281 285 282 283 285 288 292 296 300 307 311 293 265 258 272 284 282 286 295 302 304 302 300 299 294 289 288 290 294 300 305 306 306 308 308 308 308 308 309 308 310 313 313 nan nan nan nan
268 271 271 269 267 268 271 274 275 274 275 276 274 276 275 275 274 278 282 284 285 287 289 295 302 309 313 301 274 267 284 295 290 283 284 291 294 295 294 292 286 284 287 293 299 303 305 306 306 305 304 305 306 307 308 309 310 312 311 311 311 308 309
268 266 263 264 263 266 269 271 273 274 275 276 277 277 278 277 278 281 284 286 288 291 294 298 302 304 305 297 282 277 282 285 284 283 287 293 294 294 289 284 283 291 298 301 303 305 305 304 303 304 305 306 306 307 308 309 310 309 310 310 309 307 309
264 263 264 264 264 268 272 272 273 274 275 275 276 278 279 281 283 285 288 291 292 295 296 297 294 290 289 289 286 283 281 283 285 287 293 292 284 278 279 284 289 292 294 292 293 295 299 301 302 303 304 306 307 308 307 307 308 310 310 309 310 310 308
269 269 269 268 267 269 269 270 271 274 275 276 277 278 280 282 284 285 287 285 285 285 nan 287 288 292 296 290 281 278 277 277 279 285 290 290 290 288 287 284 287 289 291 292 289 289 291 297 303 301 302 306 307 305 309 308 306 304 305 303 301 300 299
274 270 269 269 268 267 270 272 274 275 276 276 276 277 278 278 279 281 284 287 290 291 290 289 291 292 288 281 277 278 276 277 283 289 287 287 288 290 292 292 288 284 287 290 292 293 294 298 302 303 nan nan nan nan nan nan nan nan 296 295 296 297 299
261 264 266 269 272 274 274 276 277 278 279 278 279 280 279 281 282 283 283 283 282 281 nan 288 289 289 287 285 283 280 279 284 289 290 289 290 293 295 295 295 295 294 294 295 294 293 295 nan nan nan nan nan nan nan nan nan nan nan nan nan nan nan nan